Location: Newark
(52.1472°N, 117.4361°W)
Time: 20:39:25
(UTC+00:00)

X-37B - Visible Passes

Search period start: 20 September 2020 00:00
Search period end: 30 September 2020 00:00
Orbit: 386 x 387 km, 45.0° (Epoch: 18 September)

Date Brightness Start Highest point End Pass type
(mag) Time Alt. Az. Time Alt. Az. Time Alt. Az.
20 Sep 2.4 12:19:14 16° SW 12:20:15 19° SSW 12:22:35 10° SE visible
21 Sep 3.0 11:23:27 15° SSE 11:23:27 15° SSE 11:24:24 10° SE visible
21 Sep 2.9 12:56:37 10° SW 12:57:46 11° SSW 12:58:54 10° S visible
22 Sep 2.7 12:00:04 15° S 12:00:04 15° S 12:01:26 10° SSE visible
